Time,B instrument,Bx,By,Bz,sigma B,Ion instrument,Status,Tp_par,Tp_perp,carrot,r_sun,clat,clong,earth_he_angle,n_p,vp_x,vp_y,vp_z,vth_p_par,vth_p_perp
1980-03-13 00:34:20,-1,nan,nan,nan,nan,1,3,nan,nan,1693,0.95831198,-1.8637543,355.1311,278.24829,nan,313.611,-27.9938,-8.30438,nan,nan
1980-03-13 01:17:32,-1,nan,nan,nan,nan,1,3,nan,nan,1693,0.95822453,-1.8664284,354.72485,278.24048,nan,312.827,-12.8609,-25.3751,nan,nan
1980-03-13 02:00:44,-1,nan,nan,nan,nan,1,3,nan,nan,1693,0.95813704,-1.8691034,354.32275,278.23291,nan,321.542,10.9197,-24.8906,nan,nan
1980-03-13 02:43:56,-1,nan,nan,nan,nan,1,3,nan,nan,1693,0.9580493,-1.8717775,353.92017,278.22485,nan,322.224,-6.3788,-14.1723,nan,nan
1980-03-13 03:27:08,-1,nan,nan,nan,nan,1,3,nan,nan,1693,0.95795941,-1.8745146,353.51392,278.21704,nan,312.736,-7.69251,-12.7903,nan,nan
1980-03-13 04:10:20,-1,nan,nan,nan,nan,1,3,nan,nan,1693,0.95787144,-1.8771896,353.11157,278.20923,nan,314.818,-6.66422,-2.44322,nan,nan
1980-03-13 04:53:32,-1,nan,nan,nan,nan,1,3,nan,nan,1693,0.95778328,-1.8798647,352.70947,278.20166,nan,311.451,-10.9189,-6.58328,nan,nan
1980-03-13 05:36:44,-1,nan,nan,nan,nan,1,3,nan,nan,1693,0.95769501,-1.8825407,352.30713,278.19385,nan,309.497,-18.2461,-4.28963,nan,nan
1980-03-13 07:35:23,1,-6.68,-8.12,6.52,0.284253,1,1,26323.8,14536.2,1693,0.95744985,-1.889946,351.1958,278.17236,10.8442,303.219,-12.944,15.8518,20.8464,15.4912
1980-03-13 07:38:05,1,-6.38333,-7.9,6.66667,0.283333,1,1,28515.0,10756.3,1693,0.95744365,-1.8901329,351.17188,278.17188,13.8922,301.258,-16.2737,21.1656,21.6967,13.3257
1980-03-13 07:39:27,1,-6.88,-7.52,7.08,0.425206,1,1,17093.1,14214.9,1693,0.95744163,-1.8901949,351.15991,278.17163,13.357,298.823,-16.312,18.1949,16.7984,15.319
1980-03-13 07:40:48,1,-6.18333,-7.36667,7.86667,0.243242,1,1,9246.79,9767.77,1693,0.95743954,-1.8902569,351.14795,278.17139,17.5793,300.259,-24.0361,19.7461,12.3553,12.6986
1980-03-13 07:42:09,1,-6.4,-7.72,7.6,0.263818,1,1,15416.3,12842.2,1693,0.95743543,-1.8903818,351.13599,278.17114,12.8007,300.044,-17.4607,20.2968,15.9532,14.5606
1980-03-13 07:43:30,1,-6.26667,-7.53333,7.8,0.307318,1,1,10844.3,10653.0,1693,0.95743334,-1.8904438,351.12012,278.1709,15.8444,299.32,-23.5189,20.2478,13.3801,13.2615
1980-03-13 07:44:51,1,-6.3,-7.4,7.6,0.0,1,1,15614.2,12688.8,1693,0.95743132,-1.8905058,351.10815,278.17065,13.3508,300.64,-15.8519,21.77,16.0553,14.4733
1980-03-13 07:46:12,1,-6.25,-7.63333,7.6,0.254406,1,1,11151.1,11397.9,1693,0.95742714,-1.8906307,351.09619,278.17041,15.1384,299.25,-23.4086,20.3948,13.568,13.7173
1980-03-13 07:47:33,1,-6.25,-7.16667,7.6,0.260875,1,1,15629.9,12709.2,1693,0.95742512,-1.8906927,351.08423,278.17017,14.0896,299.328,-16.1856,21.933,16.0634,14.4849
1980-03-13 07:48:54,1,-6.35,-6.96667,7.8,0.240947,1,1,11822.5,11220.5,1693,0.95742303,-1.8907547,351.07227,278.16992,14.3452,298.37,-22.6021,21.4677,13.9705,13.6102
1980-03-13 07:50:15,1,-6.1,-6.8,8.0,0.0,1,1,17233.6,13525.3,1693,0.95741892,-1.8908796,351.0603,278.16968,14.0313,299.498,-16.267,22.1809,16.8673,14.9428
1980-03-13 07:51:36,1,-6.43333,-7.46667,7.26667,0.258199,1,1,10876.3,10301.0,1693,0.95741683,-1.8909416,351.04443,278.16943,14.8412,298.198,-23.2806,19.5016,13.3998,13.0406
1980-03-13 07:52:57,1,-6.2,-6.66,7.28,0.268328,1,1,19256.9,15573.7,1693,0.95741481,-1.8910036,351.03247,278.16919,14.8662,300.834,-16.223,20.4296,17.83,16.0344
1980-03-13 07:54:18,1,-6.0,-6.91667,7.58333,0.214735,1,1,17081.1,13179.3,1693,0.95741063,-1.8911285,351.02051,278.16895,13.5293,300.659,-19.3371,19.638,16.7925,14.7504
1980-03-13 07:55:39,1,-5.94,-6.98,7.58,0.248193,1,1,22781.6,17223.3,1693,0.95740861,-1.8911905,351.00854,278.1687,14.1701,299.109,-13.9109,21.2865,19.3932,16.8623
1980-03-13 07:57:00,1,-6.16667,-7.16667,7.2,0.307318,1,1,26447.0,12332.7,1693,0.95740443,-1.8913155,350.99658,278.16846,13.9783,301.84,-12.4141,19.4127,20.8952,14.2688
1980-03-13 07:58:21,1,-6.06667,-7.06667,7.53333,0.294392,1,1,22813.4,16773.4,1693,0.95740241,-1.8913774,350.98462,278.16821,13.9917,301.208,-15.8664,20.553,19.4068,16.6406
1980-03-13 07:59:42,1,-5.95,-7.03333,7.38333,0.315348,1,1,21147.9,12934.5,1693,0.95740032,-1.8914394,350.96875,278.16797,18.4357,305.838,-6.78038,16.8855,18.685,14.6128
1980-03-13 08:01:03,1,-5.9,-6.5,7.12,0.285657,1,1,27334.3,25453.1,1693,0.95739621,-1.8915644,350.95679,278.16772,16.9098,309.186,-8.16272,12.1817,21.2428,20.4988
1980-03-13 08:02:24,1,-6.18333,-6.36667,7.23333,0.304138,1,1,28057.2,22563.3,1693,0.95739412,-1.8916264,350.94482,278.16748,16.6689,308.799,-4.86764,13.0329,21.5219,19.3001
1980-03-13 08:03:45,1,-5.94,-6.42,7.12,0.256125,1,1,29110.9,26775.1,1693,0.95739204,-1.8916883,350.93286,278.16724,16.8714,309.248,-9.01667,12.8448,21.9223,21.0244
1980-03-13 08:05:06,1,-6.02,-6.28,7.2,0.274226,1,1,26994.9,22977.4,1693,0.95738792,-1.8918133,350.9209,278.16699,17.2464,309.648,-4.50809,12.3329,21.1105,19.4764
1980-03-13 08:06:27,1,-5.9,-6.3,7.16667,0.149071,1,1,25610.5,24027.5,1693,0.95738584,-1.8918753,350.90894,278.16675,16.5706,309.96,-9.51158,10.8019,20.5621,19.9165
1980-03-13 08:07:48,1,-6.36667,-5.75,7.13333,0.404489,1,1,32091.4,24108.2,1693,0.95738381,-1.8919373,350.89307,278.1665,16.5161,307.099,-5.87686,11.6701,23.0172,19.9499
1980-03-13 08:09:09,1,-6.43333,-7.08333,7.33333,0.330404,1,1,22180.9,20934.8,1693,0.95737964,-1.8920622,350.8811,278.16626,14.2726,307.048,-12.5636,14.215,19.1358,18.5905
1980-03-13 08:10:30,1,-6.26667,-6.86667,7.26667,0.288675,1,1,24585.4,20050.2,1693,0.95737761,-1.8921242,350.86914,278.16602,13.7987,304.826,-9.43708,15.0139,20.1464,18.1935
1980-03-13 08:11:51,1,-6.18,-6.56,7.58,0.285657,1,1,19438.2,19351.0,1693,0.95737553,-1.8921862,350.85718,278.16577,14.454,307.625,-11.2703,15.6883,17.9137,17.8735
1980-03-13 08:13:12,1,-6.5,-6.76667,7.46667,0.296273,1,1,17215.0,15433.3,1693,0.95737135,-1.8923111,350.84521,278.16553,14.713,305.97,-6.57758,14.8232,16.8582,15.962
1980-03-13 08:14:33,1,-6.4,-6.58,7.28,0.251396,1,1,22281.9,19710.0,1693,0.95736933,-1.8923731,350.83325,278.16528,14.492,307.154,-10.5529,13.293,19.1794,18.0385
1980-03-13 08:15:54,1,-6.52,-6.26,7.36,0.344093,1,1,23856.2,16827.5,1693,0.95736724,-1.892436,350.82129,278.16504,15.9472,306.132,-6.27782,12.2601,19.8453,16.6674
1980-03-13 08:17:15,1,-5.81667,-7.1,7.56667,0.224227,1,1,18580.4,20094.1,1693,0.95736313,-1.89256,350.80542,278.16479,14.2328,307.41,-12.0261,15.1159,17.514,18.2135
1980-03-13 08:18:36,1,-6.01667,-6.85,7.63333,0.299073,1,1,20729.3,19085.0,1693,0.95736104,-1.892622,350.79346,278.16455,14.1447,307.286,-7.72058,16.1743,18.4991,17.7502
1980-03-13 08:19:57,1,-5.51667,-7.05,7.56667,0.222361,1,1,19340.0,18946.7,1693,0.95735896,-1.8926849,350.78149,278.16431,14.9639,307.514,-10.9338,15.2158,17.8684,17.6858
1980-03-13 08:21:18,1,-5.21667,-6.6,7.96667,0.289156,1,1,20144.6,19035.8,1693,0.95735484,-1.8928089,350.76953,278.16406,16.5194,308.142,-4.99738,15.3394,18.2363,17.7273
1980-03-13 08:22:39,1,-4.64,-7.02,8.14,0.26533,1,1,20606.1,19992.6,1693,0.95735276,-1.8928709,350.75757,278.16382,16.1189,311.054,-11.8302,15.6569,18.444,18.1674
1980-03-13 08:24:00,1,-5.06667,-6.6,7.96667,0.42947,1,1,17983.9,17004.4,1693,0.95734864,-1.8929958,350.74561,278.16357,16.5805,308.024,-4.74537,15.1045,17.2306,16.7548
1980-03-13 08:25:21,1,-5.05,-7.28333,7.9,0.796171,1,1,22494.2,22154.8,1693,0.95734656,-1.8930578,350.72974,278.16333,14.5184,308.297,-13.5783,11.3961,19.2705,19.1246
1980-03-13 08:26:42,1,-5.75,-8.76667,6.66667,0.594652,1,1,14612.9,13727.4,1693,0.95734447,-1.8931198,350.71777,278.16309,12.0713,303.977,-23.507,13.6148,15.532,15.054
1980-03-13 08:28:03,1,-6.3,-6.84,8.16,0.329848,1,1,24702.0,20660.2,1693,0.95734036,-1.8932447,350.70581,278.16284,11.9473,304.729,-9.72639,13.9861,20.1941,18.4682
1980-03-13 08:29:24,1,-5.48333,-6.85,8.63333,0.275882,1,1,17656.3,14091.9,1693,0.95733827,-1.8933067,350.69385,278.1626,14.2675,306.457,-6.21672,17.0474,17.0729,15.2525
1980-03-13 08:30:45,1,-5.46667,-6.66667,8.3,0.278887,1,1,22426.6,19273.3,1693,0.95733625,-1.8933697,350.68188,278.16235,15.7733,308.002,-12.2225,17.3562,19.2415,17.8376
1980-03-13 08:32:06,1,-4.98333,-7.2,8.36667,0.153659,1,1,25099.6,17276.9,1693,0.95733207,-1.8934937,350.66992,278.16211,14.0332,307.91,-8.57988,14.4259,20.356,16.8885
1980-03-13 08:33:27,1,-4.32,-8.68,7.18,0.229783,1,1,19213.7,17486.1,1693,0.95732999,-1.8935556,350.65405,278.16187,15.1403,305.282,-18.6851,17.1516,17.81,16.9904
1980-03-13 08:34:48,1,-4.5,-7.75,7.5,0.281366,1,1,35238.9,17797.4,1693,0.95732796,-1.8936186,350.64209,278.16162,17.4917,304.895,-15.3052,19.0107,24.1195,17.141
1980-03-13 08:36:09,1,-4.34,-7.52,7.88,0.285657,1,1,21477.2,19442.9,1693,0.95732379,-1.8937426,350.63013,278.16138,16.0812,308.612,-14.7148,17.9075,18.8298,17.9159
1980-03-13 08:37:30,1,-3.55,-8.36667,7.6,0.530461,1,1,22969.1,23006.4,1693,0.95732176,-1.8938046,350.61816,278.16113,16.3844,309.364,-26.0217,15.764,19.4729,19.4887
1980-03-13 08:38:51,1,-3.71667,-7.81667,7.8,0.263523,1,1,21399.1,18846.1,1693,0.95731968,-1.8938675,350.6062,278.16089,17.289,307.342,-17.7191,19.939,18.7956,17.6388
1980-03-13 08:40:12,1,-3.5,-7.93333,7.86667,0.307318,1,1,36896.8,19572.3,1693,0.95731556,-1.8939915,350.59424,278.16064,17.0434,307.444,-16.077,20.4021,24.6804,17.9754
1980-03-13 08:41:33,1,-3.46667,-7.83333,7.8,0.166667,1,1,23024.0,20026.5,1693,0.95731348,-1.8940535,350.57837,278.1604,18.9594,306.901,-16.858,20.3067,19.4961,18.1828
1980-03-13 08:42:54,1,-3.81667,-7.15,8.33333,0.263523,1,1,38555.0,18731.5,1693,0.95731139,-1.8941164,350.56641,278.16016,18.7134,306.981,-12.8246,21.1216,25.2289,17.5851
1980-03-13 08:44:15,1,-4.04,-7.06,8.38,0.387814,1,1,22890.4,20008.8,1693,0.95730728,-1.8942404,350.55444,278.15991,18.3858,306.945,-13.4781,19.8445,19.4395,18.1747
1980-03-13 08:45:36,1,-3.78333,-7.28333,8.73333,0.324037,1,1,23704.5,18727.9,1693,0.95730519,-1.8943033,350.54248,278.15967,15.7643,307.537,-8.39308,18.4507,19.7821,17.5834
1980-03-13 08:46:57,1,-4.2,-7.22,8.72,0.321248,1,1,21551.1,19365.1,1693,0.95730311,-1.8943653,350.53052,278.15942,16.6426,308.812,-12.3838,19.2387,18.8622,17.88
1980-03-13 08:48:18,1,-4.2,-7.0,9.18,0.305941,1,1,23131.4,17972.1,1693,0.95729899,-1.8944893,350.51855,278.15918,16.1768,308.707,-7.82682,18.8612,19.5415,17.2249
1980-03-13 08:49:39,1,-4.16667,-8.26667,7.83333,0.244949,1,1,17493.4,15018.1,1693,0.95729691,-1.8945522,350.50269,278.15894,16.6301,306.574,-15.0969,19.9828,16.994,15.7458
1980-03-13 08:51:00,1,-4.36667,-8.28333,7.83333,0.25,1,1,28373.6,15288.4,1693,0.9572928,-1.8946762,350.49048,278.15845,14.5065,305.598,-15.1694,19.8984,21.6429,15.8869
1980-03-13 08:52:21,1,-4.63333,-8.05,8.1,0.240947,1,1,18861.5,16750.9,1693,0.95729071,-1.8947382,350.47876,278.15845,16.8787,306.913,-14.3424,19.8768,17.646,16.6294
1980-03-13 08:53:42,1,-4.6,-8.03333,7.96667,0.278887,1,1,30304.4,16013.5,1693,0.95728862,-1.8948011,350.4668,278.1582,15.5375,306.671,-14.0013,19.944,22.3672,16.2593
1980-03-13 08:55:03,1,-4.94,-7.76,7.9,0.262298,1,1,22518.5,18729.4,1693,0.95728451,-1.8949251,350.45459,278.15771,16.83,307.126,-14.6512,19.5092,19.2809,17.5841
1980-03-13 08:56:24,1,-4.81667,-7.3,7.83333,0.311359,1,1,28027.3,17315.6,1693,0.95728242,-1.8949871,350.44287,278.15771,17.0573,306.598,-11.517,17.2516,21.5104,16.9074
1980-03-13 08:57:45,1,-4.8,-7.24,8.06,0.323728,1,1,19034.1,16997.2,1693,0.9572804,-1.89505,350.427,278.15747,19.051,308.452,-13.6531,18.1221,17.7265,16.7512
1980-03-13 08:59:06,1,-4.48,-7.12,8.28,0.229783,1,1,26518.0,17726.8,1693,0.95727623,-1.895174,350.41479,278.15698,18.1205,307.947,-9.96762,16.7766,20.9232,17.107
1980-03-13 09:00:27,1,-4.4,-6.66667,8.28333,0.305959,1,1,26135.7,19513.2,1693,0.9572742,-1.895237,350.40308,278.15698,19.8921,306.45,-15.6659,20.8639,20.7718,17.9482
1980-03-13 09:01:48,1,-4.91667,-7.05,8.7,0.347211,1,1,27986.1,18883.0,1693,0.95727211,-1.895299,350.39111,278.15674,15.9147,306.794,-10.8123,18.7989,21.4946,17.656
1980-03-13 09:03:09,1,-4.86667,-7.76667,8.5,0.343188,1,1,20660.7,17597.5,1693,0.95726794,-1.8954229,350.37891,278.15625,15.3793,304.012,-15.4252,21.8931,18.4685,17.0444
1980-03-13 09:04:30,1,-4.56,-7.76,8.38,0.313688,1,1,30366.7,16790.4,1693,0.95726585,-1.8954859,350.36719,278.15625,14.2325,303.937,-16.6578,23.7624,22.3901,16.649
1980-03-13 09:05:51,1,-4.88,-7.36,8.54,0.287054,1,1,20674.0,17997.0,1693,0.95726383,-1.8955479,350.35132,278.15601,15.9568,304.334,-15.0749,21.3406,18.4744,17.2368
1980-03-13 09:07:12,1,-4.86667,-7.33333,8.63333,0.244949,1,1,31425.4,16008.8,1693,0.95725965,-1.8956718,350.33911,278.15552,14.7508,303.234,-13.3148,23.4582,22.7771,16.2569
1980-03-13 09:08:33,1,-4.71667,-7.16667,8.7,0.23863,1,1,21291.9,17141.6,1693,0.95725757,-1.8957348,350.32739,278.15552,16.2883,302.922,-14.7901,23.3085,18.7485,16.8222
1980-03-13 09:09:54,1,-4.86667,-7.26667,8.83333,0.251661,1,1,29253.0,16658.2,1693,0.95725548,-1.8957968,350.31543,278.15527,14.5857,302.333,-12.8634,23.1851,21.9757,16.5833
1980-03-13 09:11:15,1,-4.82,-7.36,9.1,0.219089,1,1,19610.0,16500.0,1693,0.95725137,-1.8959208,350.30322,278.15479,14.3556,302.599,-12.9533,21.9601,17.9927,16.5044
1980-03-13 09:12:36,1,-4.86667,-7.16667,8.63333,0.208167,1,1,22963.1,15808.8,1693,0.95724928,-1.8959837,350.2915,278.15479,13.6157,303.593,-9.57658,21.2069,19.4703,16.155
1980-03-13 09:13:57,1,-4.9,-7.2,8.7,1.98603e-15,1,1,21126.4,18701.6,1693,0.9572472,-1.8960457,350.27563,278.15454,15.0345,303.505,-13.7421,21.8033,18.6754,17.571
1980-03-13 09:15:18,1,-5.06667,-7.26667,8.5,0.278887,1,1,23310.3,15660.0,1693,0.95724308,-1.8961706,350.26367,278.1543,14.2575,304.03,-9.19824,20.6024,19.617,16.0788
1980-03-13 09:16:39,1,-4.66,-7.06,8.62,0.215407,1,1,22776.8,17826.8,1693,0.957241,-1.8962326,350.25171,278.15405,16.1611,302.68,-13.5423,21.9695,19.3912,17.1552
1980-03-13 09:18:00,1,-4.9,-6.9,8.7,0.363318,1,1,23347.6,15845.3,1693,0.95723683,-1.8963566,350.2395,278.15356,15.018,304.268,-8.75172,21.1741,19.6326,16.1737
1980-03-13 09:19:21,1,-4.82,-7.24,8.78,0.278568,1,1,20310.7,16873.3,1693,0.9572348,-1.8964195,350.22778,278.15356,14.3476,304.673,-12.4764,22.533,18.3114,16.69
1980-03-13 10:31:38,-1,nan,nan,nan,nan,1,3,nan,nan,1693,0.95708537,-1.9009008,349.55078,278.14063,nan,305.372,-8.94485,12.189,nan,nan
1980-03-13 10:32:59,1,-3.96,-5.34,7.44,0.295296,1,1,18985.1,18447.9,1693,0.95708328,-1.9009638,349.53882,278.14038,30.3028,306.44,-4.81298,12.8259,17.7037,17.4514
1980-03-13 10:34:20,1,-4.15,-5.3,7.4,0.206155,1,1,21644.8,20817.1,1693,0.95707911,-1.9010878,349.52686,278.14014,28.4587,305.657,-9.66809,12.5775,18.9032,18.5382
1980-03-13 10:35:41,1,-3.82,-5.38,7.74,0.183303,1,1,18921.1,18804.8,1693,0.95707703,-1.9011497,349.51489,278.13989,28.2594,305.072,-5.82566,15.0441,17.6738,17.6194
1980-03-13 10:37:03,1,-4.02,-5.14,7.68,0.31241,1,1,24103.9,21166.9,1693,0.95707285,-1.9012747,349.50269,278.1394,27.133,304.499,-8.91833,14.2974,19.9481,18.6933
1980-03-13 10:38:24,1,-3.96,-5.1,7.5,0.467333,1,1,19138.0,17696.0,1693,0.95707083,-1.9013367,349.48706,278.1394,28.3854,306.157,-4.7716,13.2185,17.7749,17.0921
1980-03-13 10:39:45,1,-3.7,-5.24,7.88,0.374166,1,1,20982.8,19163.0,1693,0.95706874,-1.9013996,349.4751,278.13916,27.8173,306.933,-10.0422,15.001,18.6118,17.7865
1980-03-13 10:41:06,1,-3.9,-4.82,7.94,0.368782,1,1,20327.9,19758.5,1693,0.95706457,-1.9015236,349.46289,278.13867,29.5181,304.999,-3.80699,14.6416,18.3191,18.0607
1980-03-13 10:42:27,1,-3.68,-4.98,7.54,0.31241,1,1,21914.9,19978.3,1693,0.95706248,-1.9015856,349.45117,278.13867,27.8334,306.251,-8.43462,14.4099,19.0207,18.1609
1980-03-13 10:43:48,1,-3.38333,-5.11667,7.9,0.281859,1,1,20345.7,19066.1,1693,0.9570604,-1.9016485,349.43921,278.13843,29.4398,305.682,-4.4597,14.1369,18.3271,17.7414
1980-03-13 10:45:09,1,-3.53333,-5.13333,7.76667,0.3,1,1,20915.0,19979.0,1693,0.95705628,-1.9017725,349.42725,278.13818,28.3787,307.359,-8.69098,14.8487,18.5818,18.1612
1980-03-13 10:46:30,1,-3.46667,-5.01667,7.7,0.258736,1,1,20368.0,19229.5,1693,0.9570542,-1.9018354,349.41138,278.13794,29.8006,306.236,-4.68954,14.227,18.3372,17.8173
1980-03-13 10:47:51,1,-3.48,-5.06,8.02,0.299333,1,1,20027.3,19606.1,1693,0.95705211,-1.9018974,349.39941,278.1377,29.1823,307.128,-9.44929,14.2871,18.1832,17.9909
1980-03-13 10:49:12,1,-2.88333,-5.05,8.01667,0.358624,1,1,19329.2,18974.9,1693,0.95704794,-1.9020214,349.38745,278.13745,29.0598,306.336,-5.0335,14.0804,17.8634,17.6989
1980-03-13 10:50:33,1,-3.18,-5.2,7.82,0.40398,1,1,19665.4,19557.2,1693,0.95704585,-1.9020844,349.37549,278.13721,28.1062,307.887,-9.78267,15.1441,18.0181,17.9685
1980-03-13 10:51:54,1,-2.7,-5.14,8.4,0.241661,1,1,22408.1,19294.5,1693,0.95704377,-1.9021463,349.36353,278.13696,28.1146,308.361,-5.31,15.256,19.2336,17.8474
1980-03-13 10:53:15,1,-1.8,-4.9,8.68333,0.260875,1,1,23440.5,20591.6,1693,0.95703965,-1.9022713,349.35156,278.13672,27.2791,309.334,-10.0977,17.5241,19.6717,18.4375
1980-03-13 10:54:36,1,-2.33333,-5.3,8.4,0.169967,1,1,19149.5,17719.4,1693,0.95703757,-1.9023333,349.33569,278.13647,27.7817,308.607,-5.39524,15.7553,17.7802,17.1034
1980-03-13 10:55:57,1,-2.1,-4.96667,8.2,0.309121,1,1,21100.4,18861.7,1693,0.95703548,-1.9023952,349.32373,278.13623,28.6125,309.424,-9.82941,15.1292,18.6639,17.6461
1980-03-13 10:57:18,1,-2.2,-4.86667,8.4,0.268742,1,1,18708.0,18393.7,1693,0.95703131,-1.9025202,349.31177,278.13599,30.3756,308.839,-4.35915,15.4355,17.574,17.4258
1980-03-13 10:58:39,1,-2.56,-4.9,8.56,0.304631,1,1,22343.4,20255.9,1693,0.95702922,-1.9025822,349.2998,278.13574,27.1299,308.234,-9.05046,14.6634,19.2058,18.2866
1980-03-13 11:00:00,1,-1.66,-5.08,8.66,0.32,1,1,17816.6,17231.2,1693,0.95702511,-1.9027071,349.28784,278.1355,28.1512,308.765,-4.38896,16.7485,17.1502,16.8662
1980-03-13 11:04:03,1,-2.28,-4.86,8.8,0.268328,1,1,17177.9,17150.7,1693,0.95703661,-1.7524854,349.16516,278.05188,26.8392,307.829,-10.3768,16.8172,16.84,16.8267
1980-03-13 11:04:20,-1,nan,nan,nan,nan,1,4,nan,nan,1693,0.95701677,-1.902956,349.24805,278.13477,nan,nan,nan,nan,nan,nan
1980-03-13 11:05:24,1,-2.13333,-4.7,9.26667,0.278887,1,1,18941.6,17665.2,1693,0.95703375,-1.752569,349.1532,278.05164,25.644,309.564,-4.32033,18.4166,17.6834,17.0772
1980-03-13 11:05:41,1,-2.25,-4.9,9.33333,0.328718,1,1,17005.4,16650.2,1693,0.95701468,-1.903018,349.23218,278.13452,28.2835,307.73,-4.5182,16.3247,16.7552,16.5794
1980-03-13 11:06:45,1,-2.55,-4.93333,9.06667,0.321887,1,1,18798.3,17453.3,1693,0.95701259,-1.90308,349.22412,278.13428,25.7987,308.613,-10.3145,21.3462,17.6164,16.9745
1980-03-13 11:08:06,1,-2.56667,-4.95,8.86667,0.383333,1,1,17771.6,16213.0,1693,0.95700842,-1.9032049,349.21216,278.13403,26.4921,307.942,-5.23655,20.5251,17.1286,16.3603
1980-03-13 11:09:27,1,-2.88,-5.14,8.42,0.231517,1,1,17081.7,16437.6,1693,0.95700634,-1.9032669,349.2002,278.13379,27.1626,309.282,-10.1191,20.2857,16.7928,16.4732
1980-03-13 11:10:48,1,-2.56667,-5.05,8.4,0.267187,1,1,17207.0,15625.6,1693,0.95700425,-1.9033298,349.18433,278.13354,27.3276,308.623,-5.70218,19.485,16.8543,16.0612
1980-03-13 11:12:09,1,-2.38,-4.82,9.2,0.226274,1,1,16759.1,16031.8,1693,0.95700008,-1.9034538,349.17236,278.1333,26.7948,308.836,-12.2285,19.3697,16.6335,16.2686
1980-03-13 11:13:30,1,-2.98,-4.92,8.58,0.304631,1,1,17389.5,16825.8,1693,0.95699799,-1.9035158,349.1604,278.13306,25.4072,307.899,-6.34676,20.1337,16.9434,16.6665
1980-03-13 11:14:51,1,-2.53333,-4.73333,8.93333,0.251661,1,1,19380.2,18178.4,1693,0.9569959,-1.9035788,349.14844,278.13281,24.5505,306.459,-10.3904,19.7975,17.887,17.3235
1980-03-13 11:16:12,1,-2.03333,-4.56667,9.18333,0.170783,1,1,17763.9,17074.6,1693,0.95699173,-1.9037027,349.13647,278.13257,25.0494,305.944,-6.39047,18.5235,17.1249,16.7893
1980-03-13 11:17:33,1,-1.2,-4.2,8.96667,0.292499,1,1,18317.3,17676.4,1693,0.95698965,-1.9037657,349.12451,278.13232,25.8692,306.073,-11.4127,18.8234,17.3896,17.0827
1980-03-13 11:18:54,1,-2.05,-3.91667,8.33333,0.475511,1,1,21326.7,18321.4,1693,0.95698756,-1.9038277,349.11255,278.13208,29.8897,308.576,-5.50095,14.3088,18.7638,17.3915
1980-03-13 11:20:15,1,-1.68,-3.62,8.3,0.226274,1,1,18857.7,18620.5,1693,0.95698345,-1.9039526,349.09668,278.13184,27.7669,308.982,-10.3714,13.5212,17.6442,17.5329
1980-03-13 11:21:36,1,-1.7,-3.06667,8.3,0.169967,1,1,17968.9,17131.5,1693,0.95698136,-1.9040146,349.08472,278.13159,30.1952,308.509,-5.07632,12.3756,17.2234,16.8173
1980-03-13 11:22:57,1,-0.816667,-1.83333,9.66667,0.25658,1,1,14785.8,14649.2,1693,0.95697927,-1.9040766,349.07275,278.13135,27.1384,308.7,-11.0971,12.3142,15.6236,15.5512
1980-03-13 11:24:18,1,-0.85,-1.63333,9.8,0.260875,1,1,16456.6,14983.8,1693,0.9569751,-1.9042015,349.06079,278.1311,24.7103,307.608,-7.21822,11.6466,16.4827,15.7278
1980-03-13 11:25:39,1,-0.36,-1.52,9.22,0.24,1,1,16143.6,15927.4,1693,0.95697302,-1.9042635,349.04883,278.13086,29.1545,307.587,-12.2806,13.927,16.3252,16.2155
1980-03-13 11:27:00,1,-0.883333,-2.0,9.53333,0.412647,1,1,15346.2,14868.5,1693,0.95696884,-1.9043884,349.03687,278.13062,27.1003,306.985,-6.48233,13.9383,15.9169,15.6672
1980-03-13 11:28:21,1,-0.55,-2.01667,9.63333,0.534894,1,1,17094.8,15282.4,1693,0.95696676,-1.9044504,349.021,278.13037,26.1519,307.216,-11.6844,12.5992,16.7992,15.8838
1980-03-13 11:29:42,1,-0.366667,-2.38333,9.86667,0.33541,1,1,14184.9,13895.9,1693,0.95696467,-1.9045124,349.00903,278.13013,24.8555,305.642,-5.42028,12.6372,15.3028,15.1461
1980-03-13 11:31:03,1,-1.42,-3.08,8.72,1.21688,1,1,15815.2,14361.9,1693,0.9569605,-1.9046373,348.99707,278.12988,23.9713,308.972,-8.89107,14.0348,16.1583,15.398
1980-03-13 11:32:24,1,-2.16,-3.5,8.22,0.309839,1,1,16879.8,14441.4,1693,0.95695841,-1.9046993,348.98511,278.12964,27.71,306.695,-6.52033,10.9978,16.6933,15.4405
1980-03-13 11:33:45,1,-1.63333,-3.06667,8.7,0.210819,1,1,16251.4,15216.7,1693,0.95695633,-1.9047613,348.97314,278.12939,30.3857,307.552,-12.6522,11.2018,16.3796,15.8496
1980-03-13 11:35:06,1,-1.9,-3.2,8.76667,0.149071,1,1,17027.9,14990.5,1693,0.95695215,-1.9048862,348.96118,278.12915,27.3382,306.653,-6.77637,10.9803,16.7663,15.7313
1980-03-13 11:36:27,1,25.5,-11.6667,26.5333,0.31798,1,1,13817.6,14495.3,1693,0.95695007,-1.9049482,348.94531,278.12891,28.9885,309.442,-10.5806,13.9467,15.1034,15.4693
1980-03-13 11:37:48,-1,nan,nan,nan,nan,1,3,nan,nan,1693,0.95694798,-1.9050112,348.93335,278.12866,nan,309.704,-4.91756,15.0666,nan,nan
1980-03-13 11:39:09,-1,nan,nan,nan,nan,1,3,nan,nan,1693,0.95694387,-1.9051352,348.92139,278.12842,nan,309.412,-11.2132,14.4225,nan,nan
1980-03-13 11:40:30,-1,nan,nan,nan,nan,1,3,nan,nan,1693,0.95694178,-1.9051981,348.90942,278.12817,nan,309.293,-4.65477,15.2101,nan,nan
1980-03-13 11:41:51,-1,nan,nan,nan,nan,1,3,nan,nan,1693,0.9569397,-1.9052601,348.89746,278.12793,nan,311.579,-10.748,15.08,nan,nan
1980-03-13 11:43:12,-1,nan,nan,nan,nan,1,3,nan,nan,1693,0.95693552,-1.9053841,348.8855,278.12769,nan,306.647,-5.87975,12.9868,nan,nan
1980-03-13 11:44:33,-1,nan,nan,nan,nan,1,3,nan,nan,1693,0.95693344,-1.905447,348.86963,278.12744,nan,306.869,-11.139,13.2322,nan,nan
1980-03-13 11:45:54,-1,nan,nan,nan,nan,1,3,nan,nan,1693,0.95693135,-1.905509,348.85791,278.12744,nan,306.721,-5.92267,13.6341,nan,nan
1980-03-13 11:47:15,-1,nan,nan,nan,nan,1,3,nan,nan,1693,0.95692718,-1.9056339,348.8457,278.12695,nan,309.203,-11.0442,13.008,nan,nan
1980-03-13 11:48:36,1,-1.9,-3.65,8.63333,0.254406,1,1,17832.0,14497.9,1693,0.95692509,-1.9056959,348.83374,278.12671,26.8621,308.955,-5.75973,13.7781,17.1576,15.4707
1980-03-13 11:49:57,1,-2.06667,-3.63333,8.71667,0.32532,1,1,14050.2,14035.8,1693,0.95692301,-1.9057579,348.82202,278.12671,28.39,309.517,-10.7659,10.765,15.23,15.2222
1980-03-13 11:51:18,1,-2.5,-3.9,8.4,0.0,1,1,14364.8,13843.9,1693,0.95691884,-1.9058828,348.80981,278.12622,26.6554,307.938,-6.18361,12.2627,15.3996,15.1177
1980-03-13 11:52:39,1,-2.12,-3.72,8.22,0.169706,1,1,13731.6,13817.3,1693,0.95691675,-1.9059448,348.79395,278.12598,29.8654,309.927,-10.8468,12.1416,15.0563,15.1032
1980-03-13 11:54:00,1,-2.55,-3.93333,8.26667,0.231541,1,1,13852.7,13766.9,1693,0.95691258,-1.9060698,348.78198,278.12573,27.7202,308.191,-5.50477,12.4632,15.1225,15.0757